Weather History for Al Udeid, Qatar

Change the Weather History Date:

Thursday, May 9, 2013

  Actual Average Record
Temperature  
Mean Temperature 87 °F -  
Max Temperature 97 °F - - ()
Min Temperature 77 °F - - ()
Cooling Degree Days 22    
Growing Degree Days 37 (Base 50)    
Moisture  
Dew Point 59 °F    
Average Humidity 42    
Maximum Humidity 75    
Minimum Humidity 19    
Precipitation  
Precipitation 0.00 in - - ()
Sea Level Pressure  
Sea Level Pressure 29.79 in    
Wind  
Wind Speed 5 mph ()    
Max Wind Speed 17 mph    
Max Gust Speed 17 mph    
Visibility 5.9 miles    
Events      
T = Trace of Precipitation, MM = Missing Value Source: Averaged Metar Reports

Daily Weather History Graph

Daily Weather History Graph

Search for Another Location

Airport:

Trip Planner

Search our weather history database for the weather conditions in past years. The results will help you decide how hot, cold, wet, or windy it might be!

Date:

Astronomy

May. 09, 2013 Rise Set
Actual Time 4:53 AM AST 6:09 PM AST
Civil Twilight 4:28 AM AST 6:33 PM AST
Nautical Twilight 3:59 AM AST 7:02 PM AST
Astronomical Twilight 3:29 AM AST 7:32 PM AST
Moon 4:18 AM AST (5/9) 5:44 PM AST (5/9)
Length of Visible Light 14h 04m
Length of Day
13h 15m
Waning Crescent, 0% of the Moon is Illuminated
May 9
Waning Crescent
May 10
New
May 18
First Quarter
May 25
Full
May 31
Last Quarter

Hourly Weather History & Observations

Time (AST) Temp. Heat Index Dew Point Humidity Pressure Visibility Wind Dir Wind Speed Gust Speed Precip Events Conditions
12:55 AM 81.7 °F 84.3 °F 67.6 °F 62% 29.77 in 6.2 mi Variable 3.5 mph - N/A   Clear
1:55 AM 80.8 °F 83.2 °F 67.1 °F 63% 29.76 in 5.6 mi East 3.5 mph - N/A   Haze
2:55 AM 80.4 °F 83.0 °F 67.5 °F 65% 29.77 in 5.6 mi NE 5.8 mph - N/A   Haze
3:55 AM 78.6 °F - 67.8 °F 69% 29.78 in 5.6 mi Calm Calm - N/A   Haze
4:55 AM 77.0 °F - 68.4 °F 75% 29.78 in 5.0 mi Calm Calm - N/A   Haze
5:55 AM 78.3 °F - 68.7 °F 72% 29.80 in 5.0 mi North 3.5 mph - N/A   Haze
6:55 AM 82.9 °F 86.3 °F 68.7 °F 62% 29.81 in 3.7 mi Calm Calm - N/A   Haze
7:55 AM 85.6 °F 87.9 °F 66.2 °F 52% 29.83 in 5.0 mi NW 4.6 mph - N/A   Haze
8:55 AM 88.9 °F 89.4 °F 62.4 °F 41% 29.83 in 6.2 mi NNW 8.1 mph - N/A   Partly Cloudy
9:55 AM 91.0 °F 90.0 °F 57.9 °F 33% 29.83 in 6.2 mi NNW 5.8 mph - N/A   Mostly Cloudy
10:55 AM 93.9 °F 92.9 °F 57.7 °F 30% 29.82 in 6.2 mi Calm Calm - N/A   Overcast
11:55 AM 96.6 °F 94.8 °F 55.8 °F 25% 29.81 in 6.2 mi NNW 10.4 mph 17.3 mph N/A   Mostly Cloudy
12:55 PM 97.9 °F 96.2 °F 54.9 °F 24% 29.79 in 6.2 mi NW 11.5 mph 17.3 mph N/A   Partly Cloudy
1:55 PM 97.9 °F - 49.6 °F 19% 29.78 in 6.2 mi NW 12.7 mph - N/A   Clear
2:55 PM 97.3 °F - 49.6 °F 20% 29.77 in 6.2 mi NW 11.5 mph - N/A   Clear
3:55 PM 96.4 °F - 49.8 °F 21% 29.75 in 6.2 mi WNW 11.5 mph - N/A   Clear
4:55 PM 94.3 °F - 51.8 °F 24% 29.76 in 6.2 mi NNW 16.1 mph - N/A   Clear
5:55 PM 91.8 °F - 51.8 °F 26% 29.77 in 6.2 mi North 17.3 mph - N/A   Clear
6:55 PM 89.1 °F 86.9 °F 54.0 °F 30% 29.79 in 6.2 mi North 12.7 mph - N/A   Clear
7:55 PM 86.9 °F 85.1 °F 54.5 °F 33% 29.80 in 6.2 mi North 10.4 mph - N/A   Clear
8:55 PM 85.8 °F 84.3 °F 54.9 °F 35% 29.81 in 6.2 mi Variable 5.8 mph - N/A   Clear
9:55 PM 84.2 °F 83.0 °F 55.0 °F 37% 29.82 in 6.2 mi North 6.9 mph - N/A   Clear
10:55 PM 81.1 °F 81.3 °F 57.7 °F 45% 29.82 in 6.2 mi NNW 6.9 mph - N/A   Clear
11:55 PM 80.2 °F 80.8 °F 59.2 °F 48% 29.80 in 6.2 mi NNW 4.6 mph - N/A   Clear